Location: Beemte
(52.2555°N, 5.9895°E)
Time: 04:31:20
(UTC+00:00)

CZ-2C R/B - Pass Details

Date: 15 May 2026
Orbit: 781 x 867 km, 98.4° (Epoch: 6 June)

Event Time Altitude Azimuth Distance (km) Brightness Sun altitude
Exits shadow 22:39:09 17° 118° (ESE) 1,933 4.2 -17.8°
Maximum altitude 22:42:31 34° 62° (ENE) 1,279 3.8 -17.9°
Drops below altitude 10° 22:47:11 10° 359° (N) 2,360 6.3 -18.0°
Sets 22:49:39 0° 351° (N) 3,288 7.5 -18.1°
